Location: ?????????
(54.7630°N, 39.4991°E)
Time: 06:26:57
(UTC+00:00)

Cosmos 1869 - Pass Details

Date: 14 April 2026
Orbit: 444 x 468 km, 82.5° (Epoch: 10 May)

Event Time Altitude Azimuth Distance (km) Brightness Sun altitude
Exits shadow 19:54:48 52° 288° (WNW) 589 3.6 -23.0°
Drops below altitude 10° 19:58:16 10° 4° (N) 1,641 6.6 -23.2°
Sets 20:00:25 0° 9° (N) 2,526 7.6 -23.3°
